| time (UTC) | temp C | wind direction | speed KPH | gust KPH | rain 1hr cm | rain 24hr cm | rain mn cm | humidity % | barometer mb |
| 20260509224655 | 31 | 41 | 0.0 | 3.2 | 0.00 | 0.00 | 0.00 | 59 | 990.7 |
| 20260509223700 | 31 | 41 | 0.0 | 0.0 | 0.00 | 0.00 | 0.00 | 60 | 990.7 |
| 20260509222707 | 31 | 42 | 0.0 | 0.0 | 0.00 | 0.00 | 0.00 | 60 | 990.7 |
| 20260509220524 | 31 | 32 | 0.0 | 8.0 | 0.00 | 0.00 | 0.00 | 61 | 990.7 |
| 20260509215543 | 31 | 46 | 0.0 | 4.8 | 0.00 | 0.00 | 0.00 | 62 | 990.8 |
| 20260509214530 | 31 | 43 | 0.0 | 0.0 | 0.00 | 0.00 | 0.00 | 61 | 990.8 |
| 20260509212359 | 31 | 42 | 1.6 | 9.7 | 0.00 | 0.00 | 0.00 | 63 | 991.2 |
| 20260509211418 | 31 | 34 | 0.0 | 8.0 | 0.00 | 0.00 | 0.00 | 62 | 991.2 |
| 20260509204246 | 30 | 215 | 0.0 | 4.8 | 0.00 | 0.00 | 0.00 | 62 | 991.9 |
| 20260509203226 | 30 | 212 | 1.6 | 8.0 | 0.00 | 0.00 | 0.00 | 65 | 991.9 |
| 20260509202244 | 30 | 248 | 1.6 | 8.0 | 0.00 | 0.00 | 0.00 | 63 | 992.3 |
| 20260509201211 | 30 | 276 | 1.6 | 8.0 | 0.00 | 0.00 | 0.00 | 63 | 992.4 |
| 20260509200211 | 30 | 273 | 1.6 | 8.0 | 0.00 | 0.00 | 0.00 | 64 | 992.4 |
| 20260509195221 | 29 | 293 | 1.6 | 8.0 | 0.00 | 0.00 | 0.00 | 67 | 992.4 |
| 20260509194242 | 29 | 269 | 1.6 | 6.4 | 0.00 | 0.00 | 0.00 | 68 | 992.5 |
| 20260509193231 | 28 | 273 | 1.6 | 6.4 | 0.00 | 0.00 | 0.00 | 70 | 992.5 |
| 20260509192245 | 28 | 293 | 1.6 | 9.7 | 0.00 | 0.00 | 0.00 | 74 | 992.6 |
| 20260509191234 | 27 | 269 | 3.2 | 9.7 | 0.00 | 0.00 | 0.00 | 76 | 993.0 |
| 20260509190231 | 27 | 263 | 1.6 | 8.0 | 0.00 | 0.00 | 0.00 | 79 | 993.0 |
| 20260509185255 | 26 | 280 | 3.2 | 8.0 | 0.00 | 0.00 | 0.00 | 83 | 993.1 |
| 20260509184259 | 25 | 277 | 3.2 | 8.0 | 0.00 | 0.00 | 0.00 | 88 | 993.3 |
| 20260509183317 | 24 | 268 | 0.0 | 4.8 | 0.00 | 0.00 | 0.00 | 88 | 993.3 |
| 20260509182245 | 25 | 284 | 3.2 | 8.0 | 0.00 | 0.00 | 0.00 | 89 | 993.6 |
| 20260509181225 | 25 | 292 | 0.0 | 6.4 | 0.00 | 0.00 | 0.00 | 89 | 993.8 |
| 20260509180228 | 26 | 286 | 1.6 | 6.4 | 0.00 | 0.00 | 0.00 | 84 | 993.8 |
| 20260509174046 | 27 | 29 | 0.0 | 0.0 | 0.00 | 0.00 | 0.00 | 78 | 994.0 |
| 20260509173100 | 27 | 29 | 3.2 | 9.7 | 0.00 | 0.00 | 0.00 | 77 | 994.0 |
| 20260509172027 | 27 | 35 | 3.2 | 9.7 | 0.00 | 0.00 | 0.00 | 77 | 994.2 |
| 20260509171028 | 27 | 36 | 3.2 | 8.0 | 0.00 | 0.00 | 0.00 | 79 | 994.2 |
| 20260509170046 | 27 | 36 | 1.6 | 12.9 | 0.00 | 0.00 | 0.00 | 79 | 994.2 |
| 20260509163943 | 27 | 41 | 3.2 | 16.1 | 0.00 | 0.00 | 0.00 | 82 | 994.2 |
| 20260509163005 | 27 | 38 | 4.8 | 16.1 | 0.00 | 0.00 | 0.00 | 81 | 994.2 |
| 20260509161958 | 27 | 30 | 1.6 | 12.9 | 0.00 | 0.00 | 0.00 | 80 | 994.2 |
| 20260509161015 | 27 | 49 | 1.6 | 12.9 | 0.00 | 0.00 | 0.00 | 82 | 994.1 |
| 20260509160031 | 28 | 49 | 1.6 | 12.9 | 0.00 | 0.00 | 0.00 | 80 | 994.1 |
| 20260509153859 | 27 | 51 | 0.0 | 4.8 | 0.00 | 0.00 | 0.00 | 78 | 993.4 |
| 20260509152842 | 27 | 50 | 0.0 | 1.6 | 0.00 | 0.00 | 0.00 | 79 | 993.6 |
| 20260509150718 | 26 | 50 | 0.0 | 0.0 | 0.00 | 0.00 | 0.00 | 84 | 993.6 |
| 20260509145725 | 26 | 50 | 0.0 | 4.8 | 0.00 | 0.00 | 0.00 | 87 | 993.4 |
| 20260509144658 | 25 | 49 | 0.0 | 8.0 | 0.00 | 0.00 | 0.00 | 88 | 993.4 |
| 20260509143701 | 25 | 46 | 0.0 | 8.0 | 0.00 | 0.00 | 0.00 | 89 | 993.2 |
| 20260509142640 | 24 | 53 | 0.0 | 3.2 | 0.00 | 0.00 | 0.00 | 91 | 993.3 |
| 20260509141620 | 23 | 50 | 1.6 | 4.8 | 0.00 | 0.00 | 0.00 | 92 | 993.3 |
| 20260509132139 | 22 | 34 | 1.6 | 14.5 | 0.00 | 0.00 | 0.00 | 97 | 992.7 |
| 20260509131142 | 21 | 30 | 3.2 | 9.7 | 0.00 | 0.00 | 0.00 | 97 | 992.7 |
| 20260509130145 | 21 | 14 | 1.6 | 6.4 | 0.00 | 0.00 | 0.00 | 97 | 992.7 |
| 20260509125202 | 21 | 280 | 0.0 | 4.8 | 0.00 | 0.00 | 0.00 | 97 | 992.7 |
| 20260509124133 | 21 | 168 | 0.0 | 3.2 | 0.00 | 0.00 | 0.00 | 97 | 993.2 |
| 20260509123140 | 21 | 171 | 0.0 | 1.6 | 0.00 | 0.00 | 0.00 | 97 | 993.2 |
| 20260509122151 | 21 | 171 | 0.0 | 0.0 | 0.00 | 0.00 | 0.00 | 97 | 993.6 |
| 20260509121216 | 21 | 171 | 0.0 | 0.0 | 0.00 | 0.00 | 0.00 | 96 | 993.6 |
| 20260509120212 | 21 | 171 | 0.0 | 0.0 | 0.00 | 0.00 | 0.00 | 97 | 993.6 |
| 20260509115234 | 21 | 171 | 0.0 | 4.8 | 0.00 | 0.00 | 0.00 | 97 | 993.8 |
| 20260509114217 | 21 | 55 | 0.0 | 4.8 | 0.00 | 0.00 | 0.00 | 97 | 994.3 |
| 20260509113208 | 21 | 43 | 0.0 | 0.0 | 0.00 | 0.00 | 0.00 | 97 | 994.3 |
| 20260509112148 | 21 | 43 | 0.0 | 0.0 | 0.00 | 0.00 | 0.00 | 97 | 994.3 |
| 20260509111133 | 21 | 43 | 0.0 | 0.0 | 0.00 | 0.00 | 0.00 | 97 | 994.5 |
| 20260509110107 | 21 | 43 | 0.0 | 0.0 | 0.00 | 0.00 | 0.00 | 97 | 994.5 |
| 20260509105129 | 21 | 43 | 0.0 | 0.0 | 0.00 | 0.00 | 0.00 | 97 | 994.8 |
| 20260509104115 | 21 | 42 | 0.0 | 1.6 | 0.00 | 0.00 | 0.00 | 97 | 994.8 |
| 20260509103111 | 21 | 42 | 0.0 | 3.2 | 0.00 | 0.00 | 0.00 | 96 | 994.8 |
| 20260509102113 | 21 | 41 | 0.0 | 0.0 | 0.00 | 0.00 | 0.00 | 96 | 994.8 |
| 20260509101123 | 21 | 41 | 0.0 | 1.6 | 0.00 | 0.00 | 0.00 | 97 | 994.5 |
| 20260509100112 | 21 | 42 | 0.0 | 3.2 | 0.00 | 0.00 | 0.00 | 96 | 994.5 |
| 20260509095103 | 21 | 38 | 0.0 | 1.6 | 0.00 | 0.00 | 0.00 | 96 | 993.8 |
| 20260509094054 | 21 | 37 | 0.0 | 1.6 | 0.00 | 0.00 | 0.00 | 96 | 993.7 |
| 20260509093114 | 21 | 37 | 0.0 | 0.0 | 0.00 | 0.00 | 0.00 | 96 | 993.7 |
| 20260509092127 | 21 | 37 | 0.0 | 0.0 | 0.00 | 0.00 | 0.00 | 95 | 993.1 |
| 20260509091120 | 21 | 37 | 0.0 | 0.0 | 0.00 | 0.00 | 0.00 | 95 | 993.2 |
| 20260509090136 | 21 | 37 | 0.0 | 0.0 | 0.00 | 0.00 | 0.00 | 95 | 993.2 |
| 20260509085135 | 21 | 37 | 0.0 | 0.0 | 0.00 | 0.00 | 0.00 | 95 | 993.3 |
| 20260509081820 | 21 | 37 | 0.0 | 0.0 | 0.00 | 0.00 | 0.00 | 95 | 993.7 |
| 20260509074428 | 21 | 37 | 0.0 | 3.2 | 0.00 | 0.00 | 0.00 | 95 | 993.9 |
| 20260509073440 | 21 | 37 | 0.0 | 0.0 | 0.00 | 0.00 | 0.00 | 95 | 993.9 |
| 20260509072428 | 21 | 37 | 0.0 | 0.0 | 0.00 | 0.00 | 0.00 | 95 | 994.1 |
| 20260509071421 | 21 | 37 | 0.0 | 0.0 | 0.00 | 0.00 | 0.00 | 95 | 994.1 |
| 20260509065231 | 21 | 37 | 0.0 | 0.0 | 0.00 | 0.00 | 0.00 | 95 | 993.9 |
| 20260509064248 | 21 | 37 | 0.0 | 0.0 | 0.00 | 0.00 | 0.00 | 95 | 994.2 |
| 20260509063255 | 21 | 37 | 0.0 | 0.0 | 0.00 | 0.00 | 0.00 | 95 | 994.2 |
| 20260509062234 | 21 | 37 | 0.0 | 0.0 | 0.00 | 0.00 | 0.00 | 95 | 994.4 |
| 20260509061245 | 21 | 37 | 0.0 | 1.6 | 0.00 | 0.00 | 0.00 | 95 | 993.9 |
| 20260509060242 | 21 | 37 | 0.0 | 0.0 | 0.00 | 0.00 | 0.00 | 95 | 993.9 |
| 20260509055225 | 21 | 37 | 0.0 | 0.0 | 0.00 | 0.00 | 0.00 | 95 | 993.9 |
| 20260509054243 | 21 | 37 | 0.0 | 0.0 | 0.00 | 0.00 | 0.00 | 94 | 993.1 |
| 20260509053241 | 21 | 37 | 0.0 | 0.0 | 0.00 | 0.00 | 0.00 | 93 | 993.1 |
| 20260509052238 | 21 | 37 | 0.0 | 0.0 | 0.00 | 0.00 | 0.00 | 93 | 992.5 |
| 20260509051256 | 21 | 37 | 0.0 | 1.6 | 0.00 | 0.00 | 0.00 | 93 | 992.3 |
| 20260509050256 | 21 | 37 | 0.0 | 0.0 | 0.00 | 0.00 | 0.00 | 92 | 992.3 |
| 20260509045306 | 21 | 37 | 0.0 | 0.0 | 0.00 | 0.00 | 0.00 | 92 | 992.3 |
| 20260509043213 | 21 | 37 | 0.0 | 0.0 | 0.00 | 0.00 | 0.00 | 92 | 992.9 |
| 20260509042216 | 21 | 37 | 0.0 | 0.0 | 0.00 | 0.00 | 0.00 | 92 | 993.0 |
| 20260509041221 | 21 | 37 | 0.0 | 0.0 | 0.00 | 0.00 | 0.00 | 92 | 993.3 |
| 20260509040240 | 21 | 37 | 0.0 | 0.0 | 0.00 | 0.00 | 0.00 | 92 | 993.3 |
| 20260509034034 | 22 | 37 | 0.0 | 0.0 | 0.00 | 0.00 | 0.00 | 90 | 992.9 |
| 20260509033017 | 22 | 37 | 0.0 | 0.0 | 0.00 | 0.00 | 0.00 | 91 | 992.9 |
| 20260509031959 | 22 | 37 | 0.0 | 0.0 | 0.00 | 0.00 | 0.00 | 90 | 992.8 |
| 20260509030951 | 22 | 37 | 0.0 | 3.2 | 0.00 | 0.00 | 0.00 | 90 | 992.4 |
| 20260509030006 | 22 | 37 | 0.0 | 3.2 | 0.00 | 0.00 | 0.00 | 89 | 992.4 |
| 20260509025006 | 23 | 38 | 0.0 | 3.2 | 0.00 | 0.00 | 0.00 | 88 | 992.4 |
| 20260509024025 | 23 | 38 | 0.0 | 3.2 | 0.00 | 0.00 | 0.00 | 88 | 992.4 |
| 20260509023037 | 23 | 38 | 1.6 | 6.4 | 0.00 | 0.00 | 0.00 | 87 | 992.4 |
| 20260509022055 | 23 | 36 | 0.0 | 6.4 | 0.00 | 0.00 | 0.00 | 87 | 992.3 |
| 20260509021102 | 23 | 36 | 0.0 | 0.0 | 0.00 | 0.00 | 0.00 | 87 | 991.9 |
| 20260509020059 | 23 | 36 | 0.0 | 9.7 | 0.00 | 0.00 | 0.00 | 87 | 991.9 |
| 20260509015059 | 23 | 37 | 0.0 | 3.2 | 0.00 | 0.00 | 0.00 | 87 | 991.9 |
| 20260509014111 | 23 | 38 | 0.0 | 3.2 | 0.00 | 0.00 | 0.00 | 87 | 991.8 |
| 20260509013040 | 23 | 37 | 0.0 | 0.0 | 0.00 | 0.00 | 0.00 | 86 | 991.8 |
| 20260509010921 | 23 | 42 | 1.6 | 8.0 | 0.00 | 0.00 | 0.00 | 85 | 991.5 |
| 20260509004745 | 23 | 33 | 0.0 | 0.0 | 0.00 | 0.00 | 0.00 | 85 | 991.8 |
| 20260509003742 | 23 | 35 | 1.6 | 4.8 | 0.00 | 0.00 | 0.00 | 85 | 991.8 |
| 20260509002727 | 23 | 27 | 0.0 | 4.8 | 0.00 | 0.00 | 0.00 | 86 | 991.8 |
| 20260509001710 | 23 | 20 | 0.0 | 3.2 | 0.00 | 0.00 | 0.00 | 86 | 991.8 |
| 20260509000718 | 23 | 17 | 0.0 | 4.8 | 0.00 | 0.00 | 0.00 | 85 | 991.9 |
| 20260508235725 | 23 | 5 | 0.0 | 3.2 | 0.00 | 0.00 | 0.00 | 85 | 991.9 |
| 20260508234720 | 23 | 355 | 0.0 | 3.2 | 0.00 | 0.00 | 0.00 | 85 | 991.9 |
| 20260508233654 | 23 | 300 | 0.0 | 4.8 | 0.00 | 0.00 | 0.00 | 84 | 991.9 |
| 20260508232631 | 24 | 343 | 0.0 | 4.8 | 0.00 | 0.00 | 0.00 | 84 | 991.9 |
| 20260508231607 | 24 | 16 | 1.6 | 6.4 | 0.00 | 0.00 | 0.00 | 83 | 991.9 |
| 20260508225430 | 25 | 43 | 0.0 | 9.7 | 0.00 | 0.00 | 0.00 | 82 | 991.9 |